KLFIKTGI

Guest
Details From KLFI - Langley AFB
To KTGI - TANGIER ISLAND
Flight Number -
Tags generated
Created
Modified
Stats Distance 48 nm / 89 km
Max Altitude 4,700 ft / 1,433 m
Waypoints 3
Social Downloads 0
Likes 0
Share VATSIM

Download

Looking for another format? Having issues loading an existing format? Contact us
Advertisement - Login to hide

Notes

Basic altitude profile: - Ascent Rate: 2500ft/min - Ascent Speed: 250kts - Cruise Altitude: 35000ft - Cruise Speed: 420kts - Descent Rate: 1500ft/min - Descent Speed: 250kts

Route

KLFI GWYNN KTGI

ID Type Via Altitude Latitude Longitude Leg Dist Tot Dist Heading (true) Name
O KLFI APT - 0 ft / 0 m 37.08288˚ -76.36051˚ - 0 nm - Langley AFB
GWYNN FIX - 4,700 ft / 1,433 m 37.48834˚ -76.18717˚ 25 nm 25 nm 19° / 19° -
O KTGI APT - 0 ft / 0 m 37.82508˚ -75.99767˚ 22 nm 47 nm 24° / 24° TANGIER ISLAND

Altitude Profile

Advertisement - Login to hide

KLFI

Details ICAO KLFI (LFI)
Name Langley AFB
Region United States
Timezone America/New_York (UTC-4.0)
Stats Elevation 11 ft / 3 m (AMSL)
Location 37.082883° -76.360513°
Runways 1
Magnetic Variation 10.861° W

METAR

KLFI 221611Z 31010KT 10SM BKN015 OVC180 25/21 A3011 RMK AO2A OVC V BKN SLP203

Decode

TAF

TAF AMD KLFI 221220Z 2212/2315 VRB06KT 9999 BKN009 OVC040 QNH3000INS BECMG 2212/2214 VRB06KT 9999 SCT010 BKN015 QNH3000INS BECMG 2214/2215 20012KT 9999 BKN020 QNH3000INS BECMG 2215/2217 VRB06KT 9999 SCT010 BKN015 QNH3000INS BECMG 2220/2221 20006KT 9000 -SHRA FEW026 OVC150 QNH2998INS BECMG 2300/2301 21009KT 9999 NSW SCT025 BKN060 OVC130 QNH3000INS BECMG 2305/2306 22009KT 9000 -SHRA SCT010 BKN030 OVC120 QNH2998INS BECMG 2312/2313 22010G15KT 9000 -SHRA BKN015 OVC030 QNH2997INS TX26/2220Z TN21/2212Z

Decode

Departure Runways

ID Width Length Bearing (true) Bearing (mag) Surface Threshold Offset Overrun Length
08 151 ft / 46 m 10,012 ft / 3,052 m 67.48° 78.34° Concrete 0 ft / 0 m 988 ft / 301 m
26 151 ft / 46 m 10,012 ft / 3,052 m 247.50° 258.36° Concrete 0 ft / 0 m 981 ft / 299 m

KTGI

Details ICAO KTGI
Name TANGIER ISLAND
Region United States
Timezone America/New_York (UTC-4.0)
Stats Elevation 5 ft / 2 m (AMSL)
Location 37.825083° -75.997666°
Runways 1
Magnetic Variation 11.210° W

METAR

KTGI 221614Z AUTO 20007KT 10SM SCT015 23/21 A3010 RMK AO1

Decode

TAF

Not found

Destination Runways

ID Width Length Bearing (true) Bearing (mag) Surface Threshold Offset Overrun Length
02 75 ft / 23 m 3,005 ft / 916 m 7.35° 18.56° Asphalt 0 ft / 0 m 0 ft / 0 m
20 75 ft / 23 m 3,005 ft / 916 m 187.35° 198.56° Asphalt 98 ft / 30 m 0 ft / 0 m